Location: Unspecified
(0.0000°N, 0.0000°E)
Time: 10:43:47
(UTC+00:00)

Vanguard 2 - Pass Details

Date: 11 October 2022
Orbit: 553 x 2933 km, 32.9° (Epoch: 29 November)

Event Time Altitude Azimuth Distance (km) Brightness Sun altitude
Rises 21:54:29 0° 264° (W) 6,698 12.7 -61.1°
Reaches altitude 10° 22:01:30 10° 248° (WSW) 5,433 12.1 -62.8°
Maximum altitude 22:10:52 18° 211° (SSW) 4,215 11.3 -65.0°
Enters shadow 22:11:44 18° 207° (SSW) 4,159 11.3 -65.2°
